period_start,C,m1,H,J0,J1,J2,J3,J4,J5,JA,JB,JC,JD,JJ,JK,JN,#
2013-10-14 00:00:29,0.01,1.37,0.00,23.61,25.10,27.84,5.88,30.04,1015.12,2055.00,2985.94,2962.02,3219.98,349.94,322.67,24.82,0000 0000 0000 0000 000000
2013-10-14 00:01:29,0.00,1.37,0.00,23.61,25.10,27.80,5.77,30.04,1015.14,2055.00,2985.94,2962.00,3219.98,350.25,323.57,24.83,0000 0000 0000 0000 000000
2013-10-14 00:02:30,0.00,1.37,0.00,23.61,25.10,27.83,5.91,29.96,1015.12,2055.00,2985.96,2962.00,3219.98,350.32,322.73,24.83,0000 0000 0000 0000 000000
2013-10-14 00:03:30,0.01,1.37,0.00,23.61,25.10,27.83,6.13,30.08,1015.07,2055.00,2985.91,2962.00,3219.95,350.75,323.20,24.84,0000 0000 0000 0000 000000
2013-10-14 00:04:30,0.01,1.37,0.00,23.61,25.10,27.87,5.78,29.92,1015.09,2055.00,2985.87,2962.00,3219.93,350.26,322.76,24.84,0000 0000 0000 0000 000000
2013-10-14 00:05:30,0.01,1.37,0.00,23.60,25.10,27.86,5.77,29.96,1015.06,2055.00,2985.82,2962.00,3219.87,349.34,322.13,24.85,0000 0000 0000 0000 000000
2013-10-14 00:06:31,0.01,1.37,0.00,23.61,25.10,27.89,5.84,30.08,1015.05,2055.00,2985.70,2962.00,3219.86,349.61,322.44,24.86,0000 0000 0000 0000 000000
2013-10-14 00:07:31,0.01,1.37,0.00,23.61,25.10,27.88,5.92,29.92,1015.09,2055.00,2985.62,2962.00,3219.86,350.05,322.76,24.86,0000 0000 0000 0000 000000
2013-10-14 00:08:32,0.03,1.37,0.00,23.62,25.10,27.90,5.88,30.00,1015.11,2055.00,2985.32,2962.00,3219.70,350.44,323.22,24.87,0000 0000 0000 0000 000000
2013-10-14 00:09:32,0.04,1.37,0.00,23.65,25.11,27.90,5.96,30.00,1014.95,2055.00,2985.20,2962.00,3219.57,350.25,322.96,24.87,0000 0000 0000 0000 000000
2013-10-14 00:10:32,0.03,1.37,0.00,23.66,25.12,27.90,6.08,29.96,1014.91,2055.00,2985.12,2962.00,3219.47,349.99,322.70,24.88,0000 0000 0000 0000 000000
2013-10-14 00:11:32,0.02,1.37,0.00,23.66,25.12,27.88,5.95,29.88,1014.82,2055.00,2985.05,2961.99,3219.31,349.65,322.36,24.89,0000 0000 0000 0000 000000
2013-10-14 00:12:33,0.03,1.37,0.00,23.66,25.12,27.93,5.91,29.96,1014.84,2055.00,2985.01,2961.97,3219.20,349.87,322.56,24.89,0000 0000 0000 0000 000000
2013-10-14 00:13:33,0.03,1.37,0.00,23.67,25.12,27.90,5.95,30.04,1014.94,2055.00,2985.01,2961.96,3219.09,349.74,322.69,24.90,0000 0000 0000 0000 000000
2013-10-14 00:14:34,0.01,1.37,0.00,23.65,25.12,27.92,5.78,29.67,1014.95,2054.99,2985.01,2961.97,3219.05,349.28,322.02,24.90,0000 0000 0000 0000 000000
2013-10-14 00:15:34,-0.01,1.37,0.00,23.67,25.12,27.90,5.86,29.83,1014.96,2054.99,2985.01,2961.98,3219.03,348.64,321.17,24.91,0000 0000 0000 0000 000000
2013-10-14 00:16:34,0.00,1.37,0.00,23.66,25.12,27.90,5.94,29.96,1014.97,2054.99,2985.00,2961.96,3219.02,350.08,322.82,24.92,0000 0000 0000 0000 000000
2013-10-14 00:17:35,0.00,1.37,0.00,23.66,25.12,27.93,6.02,30.04,1014.94,2054.99,2985.00,2961.93,3219.03,350.11,322.94,24.92,0000 0000 0000 0000 000000
2013-10-14 00:18:35,0.01,1.37,0.00,23.68,25.12,27.86,5.88,29.96,1014.92,2054.98,2985.00,2961.85,3219.01,350.36,322.97,24.93,0000 0000 0000 0000 000000
2013-10-14 00:19:35,0.01,1.37,0.00,23.69,25.13,27.91,5.84,30.08,1014.99,2054.99,2985.00,2961.77,3219.00,348.53,321.70,24.93,0000 0000 0000 0000 000000
2013-10-14 00:20:35,0.03,1.37,0.00,23.70,25.14,27.93,5.88,30.04,1014.98,2054.99,2985.00,2961.72,3219.00,350.49,322.91,24.94,0000 0000 0000 0000 000000
2013-10-14 00:21:36,-0.00,1.37,0.00,23.69,25.14,27.95,6.01,30.00,1014.97,2054.99,2985.00,2961.77,3219.00,350.69,323.00,24.94,0000 0000 0000 0000 000000
2013-10-14 00:22:36,-0.01,1.37,0.00,23.70,25.15,27.91,6.10,30.08,1014.90,2054.99,2984.98,2961.64,3219.00,350.54,322.99,24.95,0000 0000 0000 0000 000000
2013-10-14 00:23:36,0.03,1.37,0.00,23.69,25.15,27.95,5.83,30.13,1014.77,2054.99,2984.99,2961.47,3219.00,349.79,322.43,24.96,0000 0000 0000 0000 000000
2013-10-14 00:24:37,0.03,1.37,0.00,23.70,25.15,27.92,5.98,30.13,1014.80,2054.99,2984.99,2961.38,3219.00,350.39,322.99,24.96,0000 0000 0000 0000 000000
2013-10-14 00:25:37,0.03,1.37,0.00,23.73,25.15,27.96,6.13,30.04,1014.69,2054.97,2984.97,2961.21,3219.00,350.66,323.16,24.97,0000 0000 0000 0000 000000
2013-10-14 00:26:37,0.03,1.37,0.00,23.75,25.15,27.92,5.89,30.04,1014.68,2054.98,2984.95,2961.09,3219.00,350.33,322.84,24.97,0000 0000 0000 0000 000000
2013-10-14 00:27:37,0.02,1.37,0.00,23.74,25.15,27.95,5.82,30.00,1014.69,2054.98,2984.91,2961.05,3219.00,348.79,321.44,24.98,0000 0000 0000 0000 000000
2013-10-14 00:28:38,0.02,1.37,0.00,23.73,25.15,27.89,5.90,30.04,1014.68,2054.97,2984.69,2961.03,3218.97,349.48,322.08,24.99,0000 0000 0000 0000 000000
2013-10-14 00:29:38,0.04,1.37,0.00,23.73,25.16,27.95,6.02,30.13,1014.66,2054.99,2984.46,2961.01,3218.95,350.73,323.22,24.99,0000 0000 0000 0000 000000
2013-10-14 00:30:38,0.04,1.37,0.00,23.72,25.17,27.92,5.82,30.00,1014.67,2054.97,2984.34,2961.00,3218.95,349.27,321.97,25.00,0000 0000 0000 0000 000000
2013-10-14 00:31:38,0.01,1.37,0.00,23.74,25.17,27.92,5.96,30.04,1014.67,2054.96,2984.19,2961.00,3218.91,349.75,322.35,25.00,0000 0000 0000 0000 000000
2013-10-14 00:32:39,0.02,1.37,0.00,23.75,25.17,27.95,6.06,30.13,1014.66,2054.98,2984.12,2961.00,3218.84,350.26,322.77,25.01,0000 0000 0000 0000 000000
2013-10-14 00:33:39,0.02,1.37,0.00,23.75,25.17,27.91,5.88,29.96,1014.66,2054.98,2984.08,2961.00,3218.86,349.89,322.42,25.01,0000 0000 0000 0000 000000
2013-10-14 00:34:39,0.01,1.37,0.00,23.73,25.17,27.98,5.98,30.04,1014.66,2054.98,2984.05,2961.00,3218.81,349.54,322.52,25.02,0000 0000 0000 0000 000000
2013-10-14 00:35:39,0.01,1.37,0.00,23.75,25.17,27.96,5.71,29.96,1014.68,2054.98,2984.03,2961.00,3218.78,350.12,322.64,25.03,0000 0000 0000 0000 000000
2013-10-14 00:36:40,0.01,1.37,0.00,23.73,25.18,27.96,6.02,30.00,1014.67,2054.97,2984.04,2961.01,3218.82,350.03,322.50,25.03,0000 0000 0000 0000 000000
2013-10-14 00:37:40,-0.01,1.37,0.00,23.73,25.18,27.97,5.88,29.96,1014.66,2054.96,2984.04,2961.00,3218.66,349.76,322.33,25.04,0000 0000 0000 0000 000000
2013-10-14 00:38:40,0.01,1.37,0.00,23.73,25.19,27.95,6.14,30.00,1014.67,2054.96,2984.03,2961.00,3218.59,349.81,322.79,25.04,0000 0000 0000 0000 000000
2013-10-14 00:39:41,0.01,1.37,0.00,23.74,25.19,28.00,6.12,30.04,1014.68,2054.95,2984.01,2961.00,3218.39,349.88,322.56,25.05,0000 0000 0000 0000 000000
2013-10-14 00:40:41,0.01,1.37,0.00,23.74,25.20,27.96,5.86,29.88,1014.67,2054.96,2984.01,2961.00,3218.26,350.47,323.01,25.06,0000 0000 0000 0000 000000
2013-10-14 00:41:41,0.02,1.37,0.00,23.76,25.20,28.00,5.75,30.08,1014.67,2054.91,2984.00,2961.00,3218.18,349.95,322.79,25.06,0000 0000 0000 0000 000000
2013-10-14 00:42:41,-0.02,1.37,0.00,23.76,25.20,27.97,5.88,30.21,1014.67,2054.91,2984.01,2961.00,3218.09,349.50,322.06,25.07,0000 0000 0000 0000 000000
2013-10-14 00:43:42,0.00,1.37,0.00,23.76,25.20,27.94,6.04,30.25,1014.67,2054.93,2984.00,2961.00,3218.07,350.78,323.24,25.07,0000 0000 0000 0000 000000
2013-10-14 00:44:42,0.02,1.37,0.00,23.78,25.20,27.95,6.02,30.17,1014.68,2054.91,2984.00,2961.00,3218.05,351.37,323.76,25.08,0000 0000 0000 0000 000000
2013-10-14 00:45:43,-0.04,1.37,0.00,23.77,25.20,27.99,6.02,30.08,1014.69,2054.85,2984.00,2961.00,3218.01,350.47,322.95,25.09,0000 0000 0000 0000 000000
2013-10-14 00:46:43,-0.02,1.37,0.00,23.76,25.20,27.99,5.78,30.13,1014.69,2054.84,2984.00,2961.00,3218.00,348.96,321.57,25.09,0000 0000 0000 0000 000000
2013-10-14 00:47:43,0.01,1.37,0.00,23.77,25.21,27.96,5.74,30.00,1014.72,2054.88,2984.00,2961.00,3218.01,349.26,322.58,25.10,0000 0000 0000 0000 000000
2013-10-14 00:48:43,0.04,1.37,0.00,23.75,25.22,27.97,6.02,30.00,1014.71,2054.92,2983.99,2960.98,3218.00,350.49,323.14,25.10,0000 0000 0000 0000 000000
2013-10-14 00:49:44,0.03,1.37,0.00,23.75,25.22,28.02,5.81,29.92,1014.68,2054.94,2983.99,2960.99,3218.00,349.92,322.46,25.11,0000 0000 0000 0000 000000
2013-10-14 00:50:44,0.01,1.37,0.00,23.74,25.22,28.01,5.93,29.96,1014.68,2054.95,2983.99,2960.98,3218.01,350.11,322.65,25.11,0000 0000 0000 0000 000000
2013-10-14 00:51:44,-0.01,1.37,0.00,23.75,25.22,27.96,5.87,30.00,1014.68,2054.94,2983.99,2960.98,3218.01,350.09,322.30,25.12,0000 0000 0000 0000 000000
2013-10-14 00:52:45,0.01,1.37,0.00,23.77,25.22,28.03,5.93,29.88,1014.67,2054.92,2983.98,2960.98,3218.01,350.57,323.05,25.13,0000 0000 0000 0000 000000
2013-10-14 00:53:45,-0.02,1.37,0.00,23.78,25.22,27.96,6.05,29.83,1014.68,2054.92,2983.99,2960.99,3218.00,349.96,322.47,25.13,0000 0000 0000 0000 000000
2013-10-14 00:54:45,0.01,1.37,0.00,23.79,25.22,28.05,5.95,29.92,1014.67,2054.91,2983.98,2960.97,3218.00,350.37,322.83,25.14,0000 0000 0000 0000 000000
2013-10-14 00:55:45,-0.02,1.37,0.00,23.77,25.23,27.94,5.94,30.08,1014.66,2054.89,2983.97,2960.98,3218.00,349.30,322.06,25.14,0000 0000 0000 0000 000000
2013-10-14 00:56:46,-0.01,1.37,0.00,23.78,25.24,27.98,5.81,29.50,1014.66,2054.91,2983.97,2960.95,3218.00,350.33,323.14,25.15,0000 0000 0000 0000 000000
2013-10-14 00:57:46,0.02,1.37,0.00,23.78,25.24,28.03,5.76,30.00,1014.66,2054.82,2983.94,2960.90,3218.00,348.07,320.99,25.16,0000 0000 0000 0000 000000
2013-10-14 00:58:46,-0.07,1.37,0.00,23.78,25.25,28.05,6.14,30.08,1014.66,2054.77,2983.88,2960.82,3218.00,350.28,322.87,25.16,0000 0000 0000 0000 000000
2013-10-14 00:59:46,0.02,1.37,0.00,23.78,25.25,27.98,5.78,30.08,1014.66,2054.68,2983.71,2960.64,3217.98,350.83,323.14,25.17,0000 0000 0000 0000 000000
2013-10-14 01:00:47,0.01,1.37,0.00,23.78,25.25,28.04,6.18,30.00,1014.66,2054.60,2983.50,2960.51,3217.98,351.00,323.66,25.17,0000 0000 0000 0000 000000
2013-10-14 01:01:47,-0.02,1.37,0.00,23.76,25.25,28.03,5.83,30.00,1014.66,2054.57,2983.40,2960.43,3217.97,349.79,322.32,25.18,0000 0000 0000 0000 000000
2013-10-14 01:02:47,0.02,1.37,0.00,23.76,25.25,28.00,6.10,30.00,1014.66,2054.63,2983.24,2960.33,3217.99,351.14,323.58,25.19,0000 0000 0000 0000 000000
2013-10-14 01:03:47,0.06,1.37,0.00,23.76,25.25,28.03,5.92,29.83,1014.66,2054.55,2983.12,2960.23,3217.99,350.01,322.43,25.19,0000 0000 0000 0000 000000
2013-10-14 01:04:48,-0.03,1.37,0.00,23.80,25.25,28.04,6.06,29.96,1014.66,2054.43,2983.07,2960.15,3217.97,350.50,322.87,25.20,0000 0000 0000 0000 000000
2013-10-14 01:05:48,-0.04,1.37,0.00,23.82,25.26,28.08,6.02,30.13,1014.66,2054.42,2983.07,2960.12,3217.94,350.17,322.69,25.20,0000 0000 0000 0000 000000
2013-10-14 01:06:48,0.01,1.37,0.00,23.82,25.27,28.03,5.94,30.04,1014.66,2054.43,2983.06,2960.12,3217.92,350.17,322.71,25.21,0000 0000 0000 0000 000000
2013-10-14 01:07:48,0.00,1.37,0.00,23.78,25.27,28.05,5.82,30.08,1014.66,2054.37,2983.03,2960.10,3217.86,349.32,322.38,25.21,0000 0000 0000 0000 000000
2013-10-14 01:08:49,-0.02,1.37,0.00,23.78,25.27,28.07,5.78,29.92,1014.66,2054.40,2983.04,2960.09,3217.90,349.35,321.86,25.22,0000 0000 0000 0000 000000
2013-10-14 01:09:49,-0.01,1.37,0.00,23.80,25.27,28.08,6.05,29.88,1014.66,2054.27,2983.02,2960.07,3217.75,351.06,323.26,25.23,0000 0000 0000 0000 000000
2013-10-14 01:10:49,-0.04,1.37,0.00,23.79,25.27,28.06,6.00,29.67,1014.66,2054.17,2983.01,2960.06,3217.62,350.03,322.79,25.23,0000 0000 0000 0000 000000
2013-10-14 01:11:49,-0.07,1.37,0.00,23.80,25.27,28.04,5.85,30.08,1014.66,2054.10,2983.00,2960.03,3217.42,349.22,321.76,25.24,0000 0000 0000 0000 000000
2013-10-14 01:12:49,-0.01,1.37,0.00,23.80,25.27,28.07,5.82,30.04,1014.66,2054.15,2983.00,2960.01,3217.23,349.95,322.55,25.24,0000 0000 0000 0000 000000
2013-10-14 01:13:49,0.06,1.37,0.00,23.81,25.27,28.08,5.97,30.13,1014.66,2054.12,2983.00,2960.00,3217.17,351.02,323.11,25.25,0000 0000 0000 0000 000000
2013-10-14 01:14:50,0.00,1.37,0.00,23.80,25.28,28.06,5.95,29.96,1014.66,2054.14,2982.99,2960.00,3217.09,350.22,322.71,25.26,0000 0000 0000 0000 000000
2013-10-14 01:15:50,0.02,1.37,0.00,23.79,25.29,28.05,5.92,30.08,1014.66,2054.12,2982.99,2960.00,3217.16,350.15,322.62,25.26,0000 0000 0000 0000 000000
2013-10-14 01:16:50,-0.02,1.37,0.00,23.80,25.29,28.05,5.94,29.92,1014.66,2054.11,2982.99,2960.00,3217.09,350.45,322.93,25.27,0000 0000 0000 0000 000000
2013-10-14 01:17:50,-0.01,1.37,0.00,23.78,25.29,28.04,5.92,29.75,1014.66,2054.07,2982.99,2960.00,3217.06,351.49,323.96,25.27,0000 0000 0000 0000 000000
2013-10-14 01:18:51,-0.01,1.37,0.00,23.80,25.30,28.10,5.90,29.96,1014.66,2054.10,2982.99,2960.00,3217.04,349.77,322.03,25.28,0000 0000 0000 0000 000000
2013-10-14 01:19:51,0.02,1.37,0.00,23.80,25.30,28.07,6.01,30.17,1014.65,2054.17,2982.98,2960.00,3217.05,350.38,322.82,25.28,0000 0000 0000 0000 000000
2013-10-14 01:20:51,0.05,1.37,0.00,23.80,25.30,28.10,5.94,29.96,1014.66,2054.13,2982.98,2960.00,3217.08,350.20,322.95,25.29,0000 0000 0000 0000 000000
2013-10-14 01:21:51,-0.03,1.37,0.00,23.80,25.30,28.06,5.88,30.04,1014.64,2054.11,2982.94,2960.00,3217.05,350.05,322.67,25.30,0000 0000 0000 0000 000000
2013-10-14 01:22:52,-0.01,1.37,0.00,23.78,25.30,28.06,5.84,30.13,1014.58,2054.08,2982.94,2960.00,3217.02,349.05,321.59,25.30,0000 0000 0000 0000 000000
2013-10-14 01:23:52,-0.02,1.37,0.00,23.79,25.30,28.09,5.97,30.17,1014.50,2054.09,2982.91,2960.00,3217.01,350.50,322.90,25.31,0000 0000 0000 0000 000000
2013-10-14 01:24:52,0.01,1.37,0.00,23.78,25.30,28.10,5.82,30.08,1014.56,2054.06,2982.77,2960.00,3217.00,349.92,322.76,25.31,0000 0000 0000 0000 000000
2013-10-14 01:25:53,0.00,1.37,0.00,23.77,25.30,28.11,5.90,30.17,1014.45,2054.03,2982.44,2960.00,3217.00,349.72,322.18,25.32,0000 0000 0000 0000 000000
2013-10-14 01:26:53,0.03,1.37,0.00,23.75,25.31,28.13,5.94,30.08,1014.42,2054.04,2982.35,2960.00,3217.00,350.62,323.02,25.33,0000 0000 0000 0000 000000
2013-10-14 01:27:53,0.02,1.37,0.00,23.73,25.32,28.11,6.06,30.13,1014.47,2054.03,2982.22,2960.00,3217.00,351.02,322.82,25.33,0000 0000 0000 0000 000000
2013-10-14 01:28:54,0.00,1.37,0.00,23.77,25.32,28.09,6.01,30.08,1014.55,2054.02,2982.12,2959.98,3217.00,350.09,322.56,25.34,0000 0000 0000 0000 000000
2013-10-14 01:29:54,0.02,1.37,0.00,23.78,25.32,28.09,6.03,30.13,1014.47,2054.04,2982.07,2959.95,3217.00,351.18,323.51,25.34,0000 0000 0000 0000 000000
2013-10-14 01:30:54,0.00,1.37,0.00,23.79,25.32,28.09,5.81,30.00,1014.51,2054.02,2982.05,2959.91,3216.97,349.94,322.33,25.35,0000 0000 0000 0000 000000
2013-10-14 01:31:54,0.01,1.37,0.00,23.77,25.32,28.12,5.89,30.08,1014.38,2054.03,2982.03,2959.89,3216.98,350.33,322.59,25.36,0000 0000 0000 0000 000000
2013-10-14 01:32:55,0.01,1.37,0.00,23.79,25.32,28.08,5.94,30.00,1014.57,2054.02,2982.03,2959.88,3216.97,350.00,322.68,25.36,0000 0000 0000 0000 000000
2013-10-14 01:33:55,0.00,1.37,0.00,23.80,25.32,28.09,5.91,29.88,1014.51,2054.00,2982.01,2959.81,3216.97,350.38,322.77,25.37,0000 0000 0000 0000 000000
2013-10-14 01:34:55,0.00,1.37,0.00,23.80,25.32,28.13,5.93,29.75,1014.41,2054.02,2982.00,2959.86,3216.97,350.33,322.34,25.37,0000 0000 0000 0000 000000
2013-10-14 01:35:55,0.00,1.37,0.00,23.80,25.32,28.11,6.05,30.13,1014.30,2054.03,2982.00,2959.70,3216.96,350.74,323.17,25.38,0000 0000 0000 0000 000000
2013-10-14 01:36:55,0.05,1.37,0.00,23.80,25.32,28.07,5.92,30.13,1014.25,2054.02,2982.00,2959.70,3216.96,348.78,321.21,25.38,0000 0000 0000 0000 000000
2013-10-14 01:37:56,-0.01,1.37,0.00,23.79,25.33,28.03,6.08,30.17,1014.31,2054.02,2982.00,2959.65,3216.92,351.10,323.35,25.39,0000 0000 0000 0000 000000
2013-10-14 01:38:56,0.02,1.37,0.00,23.79,25.33,28.14,6.07,30.21,1014.41,2054.00,2982.00,2959.50,3216.90,350.80,323.03,25.40,0000 0000 0000 0000 000000
2013-10-14 01:39:56,0.02,1.37,0.00,23.77,25.34,28.08,5.86,29.58,1014.54,2054.00,2982.00,2959.36,3216.80,350.27,323.00,25.40,0000 0000 0000 0000 000000
2013-10-14 01:40:56,0.03,1.37,0.00,23.77,25.34,28.15,5.72,30.08,1014.61,2054.02,2982.00,2959.26,3216.73,349.75,323.06,25.41,0000 0000 0000 0000 000000
2013-10-14 01:41:57,0.06,1.37,0.00,23.78,25.34,28.08,6.08,30.21,1014.65,2054.02,2981.99,2959.12,3216.40,350.95,323.37,25.41,0000 0000 0000 0000 000000
2013-10-14 01:42:57,0.08,1.37,0.00,23.78,25.35,28.07,5.92,30.08,1014.66,2054.01,2981.95,2959.05,3216.16,350.25,322.72,25.42,0000 0000 0000 0000 000000
2013-10-14 01:43:57,0.06,1.37,0.00,23.79,25.35,28.11,5.69,29.96,1014.66,2054.01,2981.95,2959.05,3216.11,349.25,321.78,25.43,0000 0000 0000 0000 000000
2013-10-14 01:44:57,-0.01,1.37,0.00,23.78,25.35,28.10,6.05,30.08,1014.66,2054.01,2981.95,2959.05,3216.09,350.29,322.62,25.43,0000 0000 0000 0000 000000
2013-10-14 01:45:58,0.01,1.37,0.00,23.78,25.35,28.04,5.82,29.96,1014.66,2054.01,2981.96,2959.04,3216.10,349.98,321.99,25.44,0000 0000 0000 0000 000000
2013-10-14 01:46:58,-0.01,1.37,0.00,23.77,25.35,28.11,5.91,30.04,1014.66,2054.00,2981.95,2959.04,3216.10,349.80,322.33,25.44,0000 0000 0000 0000 000000
2013-10-14 01:47:58,0.00,1.37,0.00,23.77,25.35,28.09,6.02,30.04,1014.66,2054.00,2981.94,2959.02,3216.11,350.33,323.54,25.45,0000 0000 0000 0000 000000
2013-10-14 01:48:59,0.00,1.37,0.00,23.77,25.35,28.04,6.03,29.96,1014.66,2054.00,2981.86,2959.00,3216.05,350.79,323.14,25.45,0000 0000 0000 0000 000000
2013-10-14 01:49:59,0.03,1.37,0.00,23.79,25.35,28.03,6.03,29.71,1014.66,2054.00,2981.77,2959.00,3216.01,351.17,323.53,25.46,0000 0000 0000 0000 000000
2013-10-14 01:50:59,0.01,1.37,0.00,23.78,25.35,28.10,5.84,30.04,1014.66,2054.00,2981.69,2959.00,3216.01,349.60,322.13,25.47,0000 0000 0000 0000 000000
2013-10-14 01:51:59,0.01,1.37,0.00,23.78,25.35,28.08,5.84,30.25,1014.66,2054.00,2981.63,2959.00,3216.01,350.66,323.12,25.47,0000 0000 0000 0000 000000
2013-10-14 01:53:00,0.00,1.37,0.00,23.77,25.36,28.07,5.84,30.08,1014.63,2054.00,2981.42,2959.00,3216.00,349.80,322.31,25.48,0000 0000 0000 0000 000000
2013-10-14 01:54:00,0.03,1.37,0.00,23.78,25.36,28.09,5.84,30.08,1014.53,2054.01,2981.50,2959.00,3216.00,349.57,321.68,25.48,0000 0000 0000 0000 000000
2013-10-14 01:55:00,0.00,1.37,0.00,23.76,25.36,28.05,6.02,30.29,1014.42,2054.00,2981.55,2959.00,3216.02,350.12,322.55,25.49,0000 0000 0000 0000 000000
2013-10-14 01:56:00,-0.01,1.37,0.00,23.75,25.37,28.05,5.94,30.08,1014.30,2054.00,2981.36,2959.00,3216.00,350.16,322.70,25.50,0000 0000 0000 0000 000000
2013-10-14 01:57:01,0.03,1.37,0.00,23.78,25.37,28.12,6.02,30.04,1014.22,2054.00,2981.24,2959.00,3216.00,349.57,322.00,25.50,0000 0000 0000 0000 000000
2013-10-14 01:58:01,0.01,1.37,0.00,23.79,25.37,28.05,5.89,29.96,1014.21,2054.00,2981.20,2959.01,3216.00,349.69,321.94,25.51,0000 0000 0000 0000 000000
2013-10-14 01:59:01,0.00,1.37,0.00,23.80,25.37,28.08,5.91,30.08,1014.23,2054.00,2981.16,2959.00,3216.00,349.60,322.28,25.51,0000 0000 0000 0000 000000
2013-10-14 02:00:01,0.00,1.37,0.00,23.80,25.37,28.12,5.87,30.08,1014.20,2054.00,2981.10,2959.00,3216.00,349.95,322.28,25.52,0000 0000 0000 0000 000000
2013-10-14 02:01:02,0.00,1.37,0.00,23.78,25.37,28.09,5.95,30.17,1014.19,2054.00,2981.05,2959.00,3216.00,349.46,322.07,25.52,0000 0000 0000 0000 000000
2013-10-14 02:02:02,0.01,1.37,0.00,23.78,25.37,28.12,6.03,30.00,1014.21,2054.00,2981.02,2959.00,3216.00,350.02,322.37,25.53,0000 0000 0000 0000 000000
2013-10-14 02:03:02,0.00,1.37,0.00,23.79,25.37,28.12,5.87,30.08,1014.18,2054.00,2981.00,2959.00,3216.00,349.02,321.42,25.54,0000 0000 0000 0000 000000
2013-10-14 02:04:02,0.00,1.37,0.00,23.81,25.37,28.07,5.91,30.04,1014.19,2054.00,2981.00,2958.99,3216.00,349.69,322.03,25.54,0000 0000 0000 0000 000000
2013-10-14 02:05:03,0.00,1.37,0.00,23.81,25.37,28.13,5.97,29.96,1014.19,2054.00,2981.00,2958.99,3216.00,351.03,323.25,25.55,0000 0000 0000 0000 000000
2013-10-14 02:06:03,0.00,1.37,0.00,23.80,25.37,28.14,5.98,30.04,1014.18,2054.00,2981.00,2958.98,3215.99,350.13,322.48,25.55,0000 0000 0000 0000 000000
2013-10-14 02:07:03,0.00,1.37,0.00,23.81,25.37,28.16,5.95,30.04,1014.18,2054.00,2981.00,2958.97,3215.99,350.56,322.83,25.56,0000 0000 0000 0000 000000
2013-10-14 02:08:03,0.00,1.37,0.00,23.82,25.37,28.11,5.92,30.04,1014.18,2054.00,2981.00,2958.96,3215.99,350.33,322.07,25.57,0000 0000 0000 0000 000000
2013-10-14 02:09:04,0.00,1.37,0.00,23.82,25.38,28.11,5.92,30.00,1014.18,2054.00,2981.00,2958.96,3215.97,349.65,322.15,25.57,0000 0000 0000 0000 000000
2013-10-14 02:10:04,0.00,1.37,0.00,23.82,25.38,28.11,5.85,29.96,1014.18,2054.00,2981.00,2958.97,3215.95,349.50,321.83,25.58,0000 0000 0000 0000 000000
2013-10-14 02:11:04,0.00,1.37,0.00,23.82,25.39,28.16,5.89,29.75,1014.18,2054.00,2980.99,2958.96,3215.97,349.40,321.74,25.58,0000 0000 0000 0000 000000
2013-10-14 02:12:04,0.00,1.37,0.00,23.81,25.39,28.09,5.95,29.79,1014.17,2054.00,2980.98,2958.95,3215.94,349.93,322.24,25.59,0000 0000 0000 0000 000000
2013-10-14 02:13:04,0.01,1.37,0.00,23.81,25.39,28.13,5.98,30.21,1014.13,2054.00,2980.98,2958.97,3215.94,350.27,321.95,25.60,0000 0000 0000 0000 000000
2013-10-14 02:14:05,0.00,1.37,0.00,23.81,25.39,28.09,5.97,29.92,1014.00,2054.00,2980.98,2958.91,3215.93,350.79,322.76,25.60,0000 0000 0000 0000 000000
2013-10-14 02:15:05,0.02,1.37,0.00,23.79,25.40,28.13,5.91,30.00,1013.87,2054.00,2980.95,2958.80,3215.85,349.57,321.83,25.61,0000 0000 0000 0000 000000
2013-10-14 02:16:05,0.05,1.37,0.00,23.80,25.40,28.09,5.92,30.00,1013.79,2054.00,2980.94,2958.71,3215.75,349.13,321.49,25.61,0000 0000 0000 0000 000000
2013-10-14 02:17:06,0.03,1.37,0.00,23.81,25.40,28.09,5.98,30.29,1013.74,2054.00,2980.91,2958.59,3215.63,349.10,321.34,25.62,0000 0000 0000 0000 000000
2013-10-14 02:18:06,0.07,1.38,0.00,23.80,25.40,28.17,5.92,30.38,1013.78,2054.00,2980.89,2958.37,3215.42,350.49,322.61,25.62,0000 0000 0000 0000 000000
2013-10-14 02:19:06,0.07,1.38,0.00,23.80,25.40,28.16,5.96,30.42,1013.79,2054.00,2980.78,2958.20,3215.24,350.24,322.60,25.63,0000 0000 0000 0000 000000
2013-10-14 02:20:06,0.07,1.38,0.00,23.80,25.40,28.15,5.92,30.29,1013.80,2054.00,2980.76,2958.16,3215.14,350.68,322.72,25.64,0000 0000 0000 0000 000000
2013-10-14 02:21:07,0.03,1.38,0.00,23.79,25.40,28.14,5.96,30.46,1013.81,2053.99,2980.51,2958.12,3215.09,350.24,322.43,25.64,0000 0000 0000 0000 000000
2013-10-14 02:22:07,0.04,1.38,0.00,23.78,25.40,28.15,6.05,30.46,1013.78,2053.99,2980.28,2958.09,3215.07,350.20,322.40,25.65,0000 0000 0000 0000 000000
2013-10-14 02:23:07,0.04,1.38,0.00,23.78,25.40,28.17,5.81,30.38,1013.79,2053.99,2980.18,2958.05,3215.03,349.89,322.11,25.65,0000 0000 0000 0000 000000
2013-10-14 02:24:07,0.03,1.38,0.00,23.78,25.40,28.15,5.80,30.42,1013.93,2053.99,2980.12,2958.04,3215.03,349.62,322.34,25.66,0000 0000 0000 0000 000000
2013-10-14 02:25:08,0.01,1.38,0.00,23.78,25.40,28.16,5.99,30.38,1014.09,2053.99,2980.06,2958.04,3215.02,350.44,322.72,25.67,0000 0000 0000 0000 000000
2013-10-14 02:26:08,0.00,1.38,0.00,23.77,25.40,28.07,5.92,30.17,1014.16,2053.99,2980.05,2958.02,3215.01,350.28,322.66,25.67,0000 0000 0000 0000 000000
2013-10-14 02:27:08,0.01,1.38,0.00,23.77,25.40,28.13,5.82,30.13,1014.17,2053.98,2980.03,2958.02,3215.01,349.46,322.01,25.68,0000 0000 0000 0000 000000
2013-10-14 02:28:08,-0.00,1.38,0.00,23.77,25.40,28.13,5.83,30.13,1014.17,2053.99,2980.07,2958.03,3215.01,349.48,322.34,25.68,0000 0000 0000 0000 000000
2013-10-14 02:29:09,-0.01,1.38,0.00,23.77,25.40,28.13,5.86,29.96,1014.17,2053.98,2980.06,2958.01,3215.00,350.54,322.84,25.69,0000 0000 0000 0000 000000
2013-10-14 02:30:09,0.00,1.38,0.00,23.76,25.40,28.10,5.81,30.08,1014.17,2053.99,2980.04,2958.00,3215.00,348.74,321.45,25.69,0000 0000 0000 0000 000000
2013-10-14 02:31:09,0.01,1.38,0.00,23.77,25.40,28.11,6.04,30.25,1014.17,2053.98,2980.02,2958.00,3215.00,350.57,322.50,25.70,0000 0000 0000 0000 000000
2013-10-14 02:32:09,0.00,1.38,0.00,23.78,25.40,28.15,5.94,30.04,1014.18,2053.97,2980.00,2958.00,3215.00,350.03,322.37,25.71,0000 0000 0000 0000 000000
2013-10-14 02:33:09,0.00,1.38,0.00,23.76,25.40,28.11,6.00,30.17,1014.18,2053.99,2980.00,2958.00,3215.00,350.67,323.34,25.71,0000 0000 0000 0000 000000
2013-10-14 02:34:10,0.01,1.38,0.00,23.78,25.40,28.10,5.93,30.00,1014.18,2053.97,2980.01,2958.00,3215.00,349.17,321.58,25.72,0000 0000 0000 0000 000000
2013-10-14 02:35:10,-0.01,1.38,0.00,23.75,25.40,28.14,5.96,30.08,1014.18,2053.98,2980.00,2958.00,3215.00,350.63,322.90,25.72,0000 0000 0000 0000 000000
2013-10-14 02:36:10,0.00,1.38,0.00,23.72,25.40,28.07,6.08,30.08,1014.18,2053.99,2980.00,2958.00,3215.00,350.07,322.54,25.73,0000 0000 0000 0000 000000